EW1979 Weather Reports


time (UTC)temp
C
wind
direction
speed
KPH
gust
KPH
rain 1hr
cm
rain 24hr
cm
rain mn
cm
humidity
%
barometer
mb
20260901131507 23 196 3.2 0.0 0.00 0.00 0.00 90 1012.8
20260901130005 22 205 3.2 0.0 0.00 0.00 0.00 92 1012.7
20260901124603 22 209 0.0 0.0 0.00 0.00 0.00 92 1012.6
20260901123008 22 209 0.0 0.0 0.00 0.00 0.00 91 1012.5
20260901121502 22 209 1.6 0.0 0.00 0.00 0.00 91 1012.2
20260901120121 22 151 1.6 0.0 0.00 0.00 0.00 91 1012.3
20260901114603 22 169 3.2 0.0 0.00 0.00 0.00 90 1012.1
20260901113007 22 205 4.8 0.0 0.00 0.00 0.00 90 1011.8
20260901110010 22 209 6.4 0.0 0.00 0.00 0.00 90 1011.5
20260901104512 22 199 4.8 0.0 0.00 0.00 0.00 89 1011.7
20260901103009 22 194 6.4 0.0 0.00 0.00 0.00 89 1011.7
20260901101608 23 180 6.4 0.0 0.00 0.00 0.00 88 1011.7
20260901100006 23 186 8.0 0.0 0.00 0.00 0.00 88 1011.8
20260901093001 23 175 8.0 0.0 0.00 0.00 0.00 87 1011.8
20260901084505 23 173 8.0 0.0 0.00 0.00 0.00 85 1012.0
20260901083102 23 187 6.4 0.0 0.00 0.00 0.00 84 1011.9
20260901081507 23 174 6.4 0.0 0.00 0.00 0.00 82 1012.0
20260901080007 23 180 8.0 0.0 0.00 0.00 0.00 81 1011.8
20260901074604 23 173 6.4 0.0 0.00 0.00 0.00 79 1011.7
20260901071504 24 173 6.4 0.0 0.00 0.00 0.00 77 1011.7
20260901070009 24 167 6.4 0.0 0.00 0.00 0.00 75 1011.8
20260901061604 25 152 4.8 0.0 0.00 0.00 0.00 71 1011.5
20260901060004 25 155 4.8 0.0 0.00 0.00 0.00 69 1011.3
20260901054606 25 176 6.4 0.0 0.00 0.00 0.00 68 1011.2
20260901053132 25 155 3.2 0.0 0.00 0.00 0.00 69 1011.2
20260901051606 26 158 4.8 0.0 0.00 0.00 0.00 68 1011.1
20260901044501 26 150 6.4 0.0 0.00 0.00 0.00 67 1011.0
20260901043126 27 90 6.4 0.0 0.00 0.00 0.00 66 1011.0
20260901041616 27 132 6.4 0.0 0.00 0.00 0.00 65 1010.8
20260901040132 27 146 8.0 0.0 0.00 0.00 0.00 64 1010.8
20260901034607 27 146 8.0 0.0 0.00 0.00 0.00 62 1010.7
20260901033002 28 138 8.0 0.0 0.00 0.00 0.00 61 1010.6
20260901031509 28 117 4.8 0.0 0.00 0.00 0.00 61 1010.5
20260901030104 28 136 3.2 0.0 0.00 0.00 0.00 60 1010.3
20260901023019 28 119 4.8 0.0 0.00 0.00 0.00 55 1010.1
20260901011502 29 122 1.6 0.0 0.00 0.00 0.00 52 1009.7
20260901010003 30 107 1.6 0.0 0.00 0.00 0.00 51 1009.8
20260901004608 30 130 1.6 0.0 0.00 0.00 0.00 50 1009.6
20260901003007 31 91 3.2 0.0 0.00 0.00 0.00 49 1009.6
20260901001511 32 59 3.2 0.0 0.00 0.00 0.00 47 1009.3
20260901000002 32 137 3.2 0.0 0.00 0.00 0.00 47 1009.2
20260831233105 33 150 3.2 0.0 0.00 0.00 0.00 44 1008.9
20260831231602 33 123 6.4 0.0 0.00 0.00 0.00 43 1008.9
20260831230005 33 141 3.2 0.0 0.00 0.00 0.00 41 1008.9
20260831224506 33 165 4.8 0.0 0.00 0.00 0.00 42 1008.9
20260831221505 34 84 4.8 0.0 0.00 0.00 0.00 40 1009.1
20260831220008 34 149 3.2 0.0 0.00 0.00 0.00 42 1009.4
20260831214503 33 111 4.8 0.0 0.00 0.00 0.00 43 1009.7
20260831213103 34 138 4.8 0.0 0.00 0.00 0.00 42 1009.7
20260831211506 33 56 4.8 0.0 0.00 0.00 0.00 46 1009.8
20260831204504 33 112 4.8 0.0 0.00 0.00 0.00 44 1010.4
20260831201604 32 110 4.8 0.0 0.00 0.00 0.00 46 1011.0
20260831194508 33 86 8.0 0.0 0.00 0.00 0.00 44 1011.4
20260831193107 33 168 8.0 0.0 0.00 0.00 0.00 45 1011.4
20260831190003 32 159 6.4 0.0 0.00 0.00 0.00 48 1011.5
20260831184511 32 164 8.0 0.0 0.00 0.00 0.00 48 1011.9
20260831181503 31 152 9.7 0.0 0.00 0.00 0.00 50 1012.4
20260831180002 32 119 8.0 0.0 0.00 0.00 0.00 51 1012.3
20260831174519 32 123 8.0 0.0 0.00 0.00 0.00 53 1012.3
20260831173004 30 164 8.0 0.0 0.00 0.00 0.00 55 1012.5
20260831171507 31 174 8.0 0.0 0.00 0.00 0.00 54 1012.5
20260831170104 30 183 8.0 0.0 0.00 0.00 0.00 56 1012.6
20260831164506 30 175 9.7 0.0 0.00 0.00 0.00 58 1012.7
20260831163106 30 181 8.0 0.0 0.00 0.00 0.00 59 1012.8
20260831161504 29 154 9.7 0.0 0.00 0.00 0.00 61 1012.8
20260831160008 29 181 8.0 0.0 0.00 0.00 0.00 61 1012.7
20260831154504 28 173 11.3 0.0 0.00 0.00 0.00 62 1012.6
20260831153009 28 178 12.9 0.0 0.00 0.00 0.00 64 1012.6
20260831151507 27 151 11.3 0.0 0.00 0.00 0.00 66 1012.5
20260831150035 27 164 12.9 0.0 0.00 0.00 0.00 68 1012.4
20260831144504 27 164 11.3 0.0 0.00 0.00 0.00 70 1012.5
20260831143003 26 162 9.7 0.0 0.00 0.00 0.00 73 1012.5
20260831141503 25 197 9.7 0.0 0.00 0.00 0.00 76 1012.3
20260831140138 25 191 9.7 0.0 0.00 0.00 0.00 81 1012.3
20260831134504 24 182 8.0 0.0 0.00 0.00 0.00 84 1012.4
20260831133118 23 159 6.4 0.0 0.00 0.00 0.00 87 1012.5